This is the latest recevied weather packets stored in our database for station/object W8MRL. If no packets are shown the sender has not sent any weather packets the latest 10 day(s).
| Time | Temp. | Humidity | Pressure | Rain* | Wind** | Luminosity | Snow |
|---|---|---|---|---|---|---|---|
| 1777424435 | 17.22° C | 83% | 1016.3 hPa | 0 mm | - | - | - |
| 1777423527 | 17.22° C | 80% | 1016.5 hPa | 0 mm | - | - | - |
| 1777422627 | 17.78° C | 80% | 1016.2 hPa | 0 mm | - | - | - |
| 1777421726 | 18.33° C | 78% | 1016.2 hPa | 0 mm | - | - | - |
| 1777420827 | 18.89° C | 76% | 1016.2 hPa | 0 mm | - | - | - |
| 1777419939 | 19.44° C | 75% | 1016.4 hPa | 0 mm | - | - | - |
| 1777419029 | 20° C | 74% | 1016 hPa | 0 mm | - | - | - |
| 1777418124 | 20.56° C | 72% | 1015.9 hPa | 0 mm | - | - | - |
| 1777417229 | 21.11° C | 72% | 1015.4 hPa | 0 mm | - | - | - |
| 1777416321 | 21.67° C | 69% | 1015 hPa | 0 mm | - | - | - |
| 1777415421 | 22.22° C | 66% | 1015.2 hPa | 0 mm | - | - | - |
| 1777414531 | 22.22° C | 66% | 1015.9 hPa | 0 mm | - | - | - |
| 1777413619 | 22.78° C | 66% | 1016.2 hPa | 0 mm | - | - | - |
| 1777412718 | 23.33° C | 66% | 1016.1 hPa | 0 mm | - | - | - |
| 1777411817 | 23.33° C | 65% | 1016.2 hPa | 0 mm | - | - | - |
| 1777410918 | 23.89° C | 65% | 1016.4 hPa | 0 mm | - | - | - |
| 1777410015 | 23.33° C | 64% | 1016.4 hPa | 0 mm | - | - | - |
| 1777409115 | 23.33° C | 67% | 1016.6 hPa | 0 mm | - | - | - |
| 1777408215 | 23.33° C | 66% | 1016.8 hPa | 0 mm | - | - | - |
| 1777407314 | 23.33° C | 64% | 1017 hPa | 0 mm | - | - | - |
| 1777406420 | 23.33° C | 64% | 1016.9 hPa | 0 mm | - | - | - |
| 1777405512 | 22.78° C | 66% | 1016.8 hPa | 0 mm | - | - | - |
| 1777404611 | 23.33° C | 69% | 1016.8 hPa | 0 mm | - | - | - |
| 1777403708 | 22.78° C | 68% | 1016.7 hPa | 0 mm | - | - | - |
| 1777402805 | 22.22° C | 70% | 1016.8 hPa | 0 mm | - | - | - |
* Rain latest hour (hover to see other rain measurements)
** Current wind speed in m/s (hover to see current wind gust speed)